Home   Weather   Melhus   Past weeks
Flag for Norway

Past Weather in Melhus, Norway — Yesterday and Last 2 Weeks

Now
32 °F

Sunny.


Feels Like: 26 °F
Forecast: 51 / 38 °F
Wind: 7 mph from Southeast

Location: Trondheim / Vaernes

Current Time: Oct 15, 2019 at 11:50:07 am

Latest Report: Oct 15, 2019 at 10:50 am


Visibility: 10 mi

Pressure: 30.01 "Hg

Humidity: 87%

Dew Point: 28 °F

Location of MelhusLocation

Past Weather in Melhus — Graph

°F

Melhus Temperature Yesterday

Maximum temperature yesterday: 43 °F (at 12:50 pm)
Minimum temperature yesterday: 28 °F (at 3:20 am)
Average temperature yesterday: 34 °F

High & Low Weather Summary for the Past Weeks

 TemperatureHumidityPressure
High52 °F (Oct 2, 3:50 pm)100% (Sep 30, 8:50 pm)30.33 "Hg (Sep 30, 8:50 pm)
Low25 °F (Oct 5, 4:20 am)46% (Oct 4, 1:20 pm)29.18 "Hg (Oct 11, 9:20 pm)
Average38 °F81%29.71 "Hg
* Reported Sep 30 10:20 am — Oct 15 10:20 am, Melhus. Weather by CustomWeather, © 2019

Note: Actual official high and low records may vary slightly from our data, if they occured in-between our weather recording intervals... More about our weather records

Advertising

Melhus Weather History for the Previous 24 Hours

Scroll right to see more
 ConditionsComfort  
Time TempWeatherWind HumidityBarometerVisibility
10:20 am
Tue, Oct 15
30 °FSunny.8 mph86%30.01 "Hg10 mi
9:50 am30 °FSunny.8 mph86%30.01 "Hg10 mi
9:20 am28 °FSunny.7 mph86%30.01 "Hg10 mi
8:50 am27 °FSunny.7 mph93%30.01 "Hg10 mi
8:20 am27 °FSunny.6 mph86%30.01 "Hg10 mi
7:50 am27 °FClear.7 mph93%30.01 "Hg10 mi
7:20 am27 °FClear.7 mph93%29.98 "Hg10 mi
6:50 am27 °FClear.3 mph93%29.98 "Hg10 mi
6:20 am28 °FClear.7 mph86%29.98 "Hg10 mi
5:50 am28 °FClear.8 mph93%30.01 "Hg10 mi
5:20 am28 °FClear.9 mph93%30.01 "Hg10 mi
4:50 am28 °FClear.10 mph93%30.01 "Hg10 mi
3:50 am28 °FClear.7 mph93%30.01 "Hg10 mi
3:20 am28 °FClear.9 mph93%30.01 "Hg10 mi
2:50 am28 °FClear.7 mph93%30.01 "Hg10 mi
1:50 am28 °FClear.7 mph93%29.98 "Hg10 mi
12:50 am30 °FClear.10 mph93%29.98 "Hg10 mi
12:20 am30 °FClear.8 mph93%29.98 "Hg10 mi
11:20 pm
Mon, Oct 14
30 °FClear.7 mph93%29.98 "Hg10 mi
10:50 pm30 °FClear.10 mph93%29.98 "Hg10 mi
10:20 pm30 °FClear.10 mph93%29.98 "Hg10 mi
9:50 pm30 °FClear.9 mph93%29.95 "Hg10 mi
9:20 pm30 °FClear.8 mph93%29.95 "Hg10 mi
8:50 pm32 °FClear.9 mph87%29.95 "Hg10 mi
8:20 pm32 °FClear.8 mph93%29.95 "Hg10 mi
7:50 pm34 °FClear.9 mph93%29.92 "Hg10 mi
7:20 pm34 °FClear.7 mph87%29.92 "Hg10 mi
6:50 pm36 °FPassing clouds.5 mph87%29.92 "HgN/A
6:20 pm36 °FClear.2 mph87%29.89 "Hg10 mi
5:50 pm39 °FSunny.5 mph75%29.89 "Hg10 mi
5:20 pm41 °FSunny.5 mph76%29.89 "Hg10 mi
4:50 pm43 °FSunny.6 mph71%29.86 "Hg10 mi
4:20 pm43 °FSunny.6 mph66%29.86 "Hg10 mi
3:50 pm43 °FSunny.6 mph71%29.86 "Hg10 mi
3:20 pm43 °FSunny.8 mph71%29.83 "Hg10 mi
2:50 pm43 °FSunny.8 mph71%29.83 "Hg10 mi
2:20 pm43 °FSunny.7 mph71%29.83 "Hg10 mi
1:50 pm43 °FSunny.5 mph66%29.83 "Hg10 mi
1:20 pm43 °FSunny.5 mph66%29.80 "Hg10 mi
12:50 pm43 °FSunny.2 mph66%29.80 "Hg10 mi
12:20 pm41 °FSunny.3 mph70%29.80 "Hg10 mi
11:50 am39 °FSunny.3 mph70%29.80 "Hg10 mi
11:20 am37 °FSunny.6 mph75%29.80 "Hg10 mi
Weather by CustomWeather, © 2019

See weather overview